Regional Weather Roundup
Issued by NWS

Home | Current Version | Previous Version | Graphics & Text | Print | Product List | Glossary Off
Versions: 1 2 3 4 5 6 7 8 9 10 11 12 13 14 15 16 17 18 19 20 21 22 23 24 25 26 27 28 29 30 31 32 33 34 35 36 37 38 39 40 41 42 43 44 45 46 47 48 49 50

148
ASUS43 KMPX 200701
RWRMN
WEATHER ROUNDUP FOR MINNESOTA
NATIONAL WEATHER SERVICE TWIN CITIES/CHANHASSEN MN
100 AM CST MON FEB 20 2017


NOTE: "FAIR" INDICATES FEW OR NO CLOUDS BELOW 12,000 FEET WITH NO
SIGNIFICANT WEATHER AND/OR OBSTRUCTIONS TO VISIBILITY. N/A MEANS
CURRENT SKY AND/OR WEATHER CONDITIONS ARE NOT AVAILABLE.

MNZ060>063-068>070-200800-
   Twin Cities Metro

CITY           SKY/WX    TMP DP  RH WIND       PRES   REMARKS
TWIN CITIES    CLOUDY    49  39  68 SE12      29.87S
ST PAUL        CLOUDY    49  40  71 SE10      29.89S
CRYSTAL        MOCLDY    63  39  41 SE13      29.85R
BLAINE         PTCLDY    54  41  62 S14       29.86R
LAKEVILLE      CLOUDY    46  43  87 SE3       29.86F
EDEN PRAIRIE   CLOUDY    52  42  69 SE10      29.85R
SOUTH ST PAUL  CLOUDY    50  39  65 SE8       29.88S
LAKE ELMO      FAIR      52  43  71 S12       29.90R
$$
MNZ001>005-007-008-013>017-022>024-027-028-200800-
   Northwest Minnesota

CITY           SKY/WX    TMP DP  RH WIND       PRES   REMARKS
BEMIDJI        CLOUDY    40  33  78 SE13G18   29.73F
HALLOCK        PTCLDY    41  37  87 SE18      29.59F
ROSEAU         PTCLDY    43  36  75 SE15      29.68S
WARROAD        PTCLDY    43  36  75 SE15G21   29.71S
THIEF RVR FALL PTCLDY    40  37  89 SE14      29.65F
CROOKSTON      PTCLDY    43  39  87 SE15      29.62F
FOSSTON        CLOUDY    45  39  81 SE12      29.67F
DETROIT LAKES  CLOUDY    45  41  87 SE14      29.70S
MOORHEAD       CLOUDY    52  46  82 SE20G25   29.63F
PARK RAPIDS    PTCLDY    44  37  76 SE14      29.72F
MAHNOMEN       FAIR      48  44  84 SE15G22   29.66S
$$
MNZ006-009>011-018-025>026-200800-
   North Central Minnesota

CITY           SKY/WX    TMP DP  RH WIND       PRES   REMARKS
BAUDETTE       CLOUDY    41  30  65 SE13      29.74F
FLAG ISLAND    MOCLDY    39  30  70 SE8G16    29.73F
INTL FALLS     PTCLDY    39  28  64 SE14      29.82F
WASKISH        CLEAR     43  34  70 SE14G20   29.75F
BIG FORK       CLOUDY    41  30  65 SE7       29.82F
LONGVILLE      CLOUDY    39  32  75 SE5       29.80S
GRAND RAPIDS   CLOUDY    38  30  73 SE13      29.85F
CRANE LAKE     CLOUDY    36  28  75 CALM      29.91F
ORR            PTCLDY    39  27  60 SE6       29.85S
COOK           CLOUDY    41  28  60 E5        29.88F
WALKER         FAIR      41  34  75 SE7       29.76S
$$
MNZ012-019>021-037-200800-
   Northeast Minnesota

CITY           SKY/WX    TMP DP  RH WIND       PRES   REMARKS
DULUTH         CLOUDY    38  31  76 E12       29.93R
ELY            CLOUDY    37  28  70 SE10      29.93F
HIBBING        CLOUDY    38  30  73 SE9       29.88S
EVELETH        CLOUDY    39  28  63 CALM      29.91S
DULUTH HARBOR  PTCLDY    36  34  93 NE16      29.97F
TWO HARBORS    CLEAR     39  32  75 NE6       29.95S
GRAND MARAIS     N/A     39  30  70 NE15G21   30.06F
G MARAIS ARPRT CLOUDY    34  25  69 E8        30.03F WCI  27
$$
MNZ029>031-032-039>041-046>048-054>057-064-200800-
   West Central Minnesota

CITY           SKY/WX    TMP DP  RH WIND       PRES   REMARKS
FERGUS FALLS   CLOUDY    52  46  82 S17       29.72R
WHEATON        CLOUDY    52  46  82 SE17G25   29.67R
MORRIS         CLOUDY    52  48  87 S17       29.69S
ALEXANDRIA     CLOUDY    50  46  86 SE13      29.74S
ELBOW LAKE     CLOUDY    51  48  87 SE17G23   29.68F
WADENA         CLOUDY    45  41  87 SE5       29.73S
GLENWOOD       MOCLDY    52  48  87 S20G28    29.74S
APPLETON       CLOUDY    54  46  76 SE15      29.69F
BENSON         CLOUDY    55  45  67 S15       29.74S
ORTONVILLE     CLOUDY    48  46  93 SE13      29.67F
WILLMAR        FAIR      52  46  82 SE12      29.77S
$$
MNZ033>034-036-042>043-049>051-058-059-200800-
   Central Minnesota

CITY           SKY/WX    TMP DP  RH WIND       PRES   REMARKS
ST CLOUD       MOCLDY    50  42  74 SE10      29.81S
SAUK CENTRE    FAIR      46  43  88 E6        29.77S
PAYNESVILLE    CLOUDY    52  45  77 S12G17    29.78S
AITKIN         PTCLDY    43  30  61 SE7       29.82F
PINE RIVER     MOCLDY    39  34  81 SE9       29.82S
BRAINERD       CLOUDY    44  36  73 SE7       29.81S
STAPLES        CLOUDY    46  39  76 SE9       29.76F
LONG PRAIRIE   FAIR      45  43  93 E9        29.77F
LITTLE FALLS   CLOUDY    46  39  76 SE9       29.80S
LITCHFIELD     CLOUDY    52  46  82 S9G17     29.79F
BUFFALO        CLOUDY    52  42  69 SE8       29.84S
MAPLE LAKE     CLOUDY    52  45  77 SE10G16   29.83R
HUTCHINSON     PTCLDY    48  45  88 SE10      29.81F
$$
MNZ037-044-045-052-053-200800-
   East Central Minnesota

CITY           SKY/WX    TMP DP  RH WIND       PRES   REMARKS
PRINCETON      CLOUDY    54  43  66 SE8       29.85R
MORA           CLOUDY    45  36  70 E5        29.88S
CAMBRIDGE      CLOUDY    54  39  58 SE6       29.84R
RUSH CITY      MOCLDY    50  37  62 S9        29.87R
MOOSE LAKE     PTCLDY    34  32  93 NE3       29.89S
HINCKLEY       FAIR      45  34  65 NE3       29.89R
CLOQUET        CLOUDY    36  30  80 E7        29.92S
MCGREGOR       CLOUDY    36  32  87 E10       29.87S
$$
MNZ071>073-080-081-089-090-097-098-200800-
   Southwest Minnesota

CITY           SKY/WX    TMP DP  RH WIND       PRES   REMARKS
MONTEVIDEO     CLOUDY    54  48  82 S12G20    29.74F
GRANITE FALLS  CLOUDY    54  49  81 SE17      29.74F
CANBY          CLOUDY    55  50  83 E8        29.70F
MARSHALL       CLOUDY    53  48  83 SE14      29.72F
REDWOOD FALLS  CLOUDY    53  46  77 S18       29.75F
OLIVIA         CLOUDY    52  46  82 S15       29.76F
PIPESTONE      PTCLDY    54  46  76 S15       29.73F
WINDOM         MOCLDY    54  46  76 S15G22    29.77F
WORTHINGTON    MOCLDY    51  48  89 S17       29.77F
JACKSON        MOCLDY    52  45  76 S15       29.80F
TRACY          CLOUDY    53  49  84 S16G22    29.73F
SLAYTON        CLOUDY    53  50  89 S15       29.75F
$$
MNZ065>067-074>077-082>085-091>093-200800-
   South Central Minnesota

CITY           SKY/WX    TMP DP  RH WIND       PRES   REMARKS
MANKATO          N/A     52  45  77 S14       29.84S
NEW ULM        MOCLDY    54  45  71 S15       29.80F
ST JAMES       CLOUDY    52  46  82 SE18      29.82F
FAIRMONT       CLOUDY    50  45  83 S14       29.83S
GLENCOE        CLOUDY    53  47  83 SE10      29.82S
FARIBAULT      PTCLDY    54  45  71 SE10      29.87F
OWATONNA       PTCLDY    52  45  76 SE17G23   29.87F
WASECA         CLOUDY    50  43  76 SE13      29.88S
ALBERT LEA     CLOUDY    48  43  81 S13       29.88F
$$
MNZ078>079-086>088-094>096-200800-
   Southeast Minnesota

CITY           SKY/WX    TMP DP  RH WIND       PRES   REMARKS
ROCHESTER      CLOUDY    46  40  79 SE14      29.92F
RED WING       CLOUDY    52  37  58 SE8       29.92R
STANTON        CLOUDY    54  43  68 S17G23    29.86S
WINONA         PTCLDY    46  36  66 S3        29.97S
AUSTIN         CLOUDY    48  43  81 SE9       29.90F
PRESTON        CLOUDY    48  39  71 SE14      29.94F
$$
ABBREVIATIONS USED IN REMARKS
   TC - TEMPERATURES IN CELSIUS
  WCI - WIND CHILL INDEX
   HX - HEAT INDEX
  VSB - VISIBILITY
$$




USA.gov is the U.S. government's official web portal to all federal, state and local government web resources and services.